#timestamp,LO_Frequency,Hit,StdDev 
1612044015.6,286047005.6,N
1612044035.4,286047008.1,Y
1612044055.3,286047003.1,P
1612044075.1,286047003.3,P
1612044095.9,286047005.7,P
1612044115.7,286047006.9,Y
1612044135.5,286046998.3,P
1612044155.4,286046999.5,N
1612044175.2,286046997.4,N
1612044195.0,286046997.0,N
1612044195.9,286046997.0,N
1612044215.8,286046997.6,N
1612044235.6,286046993.9,N
1612044255.5,286046996.3,N
1612044275.3,286046996.0,N
1612044295.1,286046993.3,N
1612044315.9,286046994.1,N
1612044335.7,286046994.2,N
1612044355.6,286046991.7,Y
1612044375.4,286046998.0,P
1612044395.2,286046996.0,P
1612044415.1,286046993.3,P
1612044416.0,286046993.3,Y
1612044435.8,286046998.3,P
1612044455.7,286046999.4,N
1612044475.5,286046999.0,N
1612044495.3,286046999.5,N
1612044515.2,286046999.0,N
1612044535.9,286046999.3,N
1612044555.7,286047001.1,N
1612044575.6,286047001.1,N
1612044595.4,286047002.8,N
1612044615.3,286047002.5,N
1612044635.1,286047001.1,N
1612044636.0,286047001.1,N
1612044655.8,286046998.1,N
1612044675.7,286046998.9,N
1612044695.5,286047001.0,N
1612044715.3,286047002.4,N
1612044735.2,286047002.1,N
1612044755.0,286047001.5,N
1612044755.9,286047001.5,N
1612044775.8,286047002.2,N
1612044795.6,286046999.7,N
1612044815.4,286047000.3,N
1612044835.3,286046999.8,N
1612044855.1,286047000.4,N
1612044875.9,286046999.6,N
1612044895.7,286046998.2,N
1612044915.5,286047002.4,N
1612044935.4,286047000.6,N
1612044955.2,286046999.8,N
1612044975.0,286047002.3,N
1612044975.9,286047002.3,N
1612044995.8,286047002.1,N
1612045015.6,286047001.7,N
1612045035.5,286047003.6,N
1612045055.3,286047003.8,N
1612045075.1,286047002.0,N
1612045095.9,286046999.9,N
1612045115.7,286047002.7,N
1612045135.6,286047002.6,N
1612045155.4,286046999.7,N
1612045175.2,286046999.7,N
1612045195.1,286047000.6,N
1612045196.0,286047000.6,N
1612045215.8,286047000.0,N
1612045235.6,286047000.2,N
1612045255.5,286047000.4,N
1612045275.3,286047000.0,N
1612045295.2,286047001.1,N
1612045315.9,286047000.0,N
1612045335.7,286047000.3,N
1612045355.6,286046999.9,N
1612045375.4,286046999.7,N
1612045395.3,286047000.3,N
1612045415.1,286047000.2,N
1612045416.0,286047000.2,N
1612045435.8,286047001.0,N
1612045455.7,286047000.0,N
1612045475.5,286047002.6,N
1612045495.3,286047003.1,N
1612045515.2,286047005.5,Y
1612045535.0,286047003.8,P
1612045535.9,286047003.8,N
1612045555.8,286047002.3,N
1612045575.6,286047000.1,N
1612045595.4,286047000.8,N
1612045615.3,286046999.1,N
1612045635.1,286046999.3,N
1612045655.9,286046999.2,N
1612045675.7,286046999.9,N
1612045695.5,286046998.7,N
1612045715.4,286046998.7,N
1612045735.2,286047001.1,N
1612045755.0,286047001.1,N
1612045756.0,286047001.1,N
1612045775.8,286046998.2,N
1612045795.6,286046999.2,N
1612045815.5,286046999.6,N
1612045835.3,286047001.2,N
1612045855.1,286046999.9,N
1612045875.9,286047001.6,N
1612045895.7,286046999.8,N
1612045915.6,286047001.1,N
1612045935.4,286046999.8,N
1612045955.2,286046999.9,N
1612045975.1,286047000.2,N
1612045976.0,286047000.2,N
1612045995.8,286047002.3,N
1612046015.7,286046999.8,N
1612046035.5,286047000.3,N
1612046055.3,286047000.3,N
1612046075.2,286047000.4,N
1612046095.0,286047000.2,N
1612046095.9,286047000.2,N
1612046115.7,286047002.8,Y
1612046135.6,286047002.1,P
1612046155.4,286047001.3,N
1612046175.3,286047001.8,N
1612046195.1,286047004.3,Y
1612046215.8,286047004.3,P
1612046235.7,286047002.1,N
1612046255.5,286047000.9,N
1612046275.4,286046998.6,N
1612046295.2,286046998.6,N
1612046315.0,286047000.9,N
1612046315.9,286047000.9,N
1612046335.8,286047001.1,N
1612046355.6,286046998.5,N
1612046375.4,286047000.3,N
1612046395.3,286047002.4,N
1612046415.1,286047000.2,N
1612046435.9,286047001.7,N
1612046455.7,286047002.5,N
1612046475.5,286047002.2,N
1612046495.4,286047002.7,N
1612046515.2,286047000.3,N
1612046535.1,286046998.5,N
1612046536.0,286046998.5,N
1612046555.8,286046998.6,N
1612046575.6,286046998.8,N
1612046595.5,286046998.4,N
1612046615.3,286046998.4,N
1612046635.1,286047000.6,N
1612046655.9,286047002.6,N
1612046675.7,286047000.2,N
1612046695.6,286047000.5,N
1612046715.4,286047000.4,N
1612046735.2,286047002.4,N
1612046755.1,286047002.5,N
1612046756.0,286047002.5,N
1612046775.8,286047000.1,N
1612046795.7,286047000.5,N
1612046815.5,286047002.8,N
1612046835.3,286047002.6,N
1612046855.2,286047002.1,N
1612046875.0,286047002.8,N
1612046875.9,286047002.8,N
1612046895.7,286047000.1,N
1612046915.6,286047002.1,N
1612046935.4,286047002.0,N
1612046955.3,286047001.3,N
1612046975.1,286047002.4,N
1612046995.8,286047000.0,N
1612047015.7,286047000.0,N
1612047035.5,286047001.1,N
1612047055.4,286047001.0,N
1612047075.2,286046998.4,N
1612047095.0,286046999.0,N
1612047095.9,286046999.0,N
1612047115.8,286047001.0,N
1612047135.6,286047001.6,N
1612047155.4,286047001.7,N
1612047175.3,286047002.6,N
1612047195.1,286047002.4,N
1612047215.9,286047000.4,N
1612047235.7,286046998.1,N
1612047255.5,286047001.2,N
1612047275.4,286046998.3,N
1612047295.2,286046998.6,N
1612047315.1,286046998.8,N
1612047316.0,286046998.8,N
1612047335.8,286046999.1,N
1612047355.6,286047000.8,N
1612047375.5,286047000.5,N
1612047395.3,286046998.7,N
1612047415.1,286047001.1,N
1612047435.9,286047000.6,N
1612047455.7,286047002.8,N
1612047475.6,286047004.3,N
1612047495.4,286047005.6,Y
1612047515.2,286047001.3,P
1612047535.1,286047002.5,P
1612047536.0,286047002.5,P
1612047555.8,286047001.8,N
1612047575.7,286047001.6,N
1612047595.5,286047002.1,Y
